GLO1962 SBGR-SBVC

Flight info

Callsign GLO1962
Flight time N/A
Altitude 35000
Route VUMEV UZ14 KADOR DCT DORDU DCT UTLON DCT
Aircraft B38M/M-SDFGHIJ4J5KLORWXY/LB1

Departure

Time 2026-05-06 23:45
Airport São Paulo/Guarulhos–Governor André Franco Montoro International Airport (SBGR)

Arrival

Time N/A
Airport Glauber de Andrade Rocha Airport (SBVC)
Time Latitude Longitude Altitude Speed Heading
2026-05-06 23:27 -23.42809 -46.48241 2471 ft 0 kts 264°
2026-05-06 23:38 -23.42808 -46.48233 2474 ft 2 kts 264°
2026-05-06 23:38 -23.42806 -46.48212 2473 ft 3 kts 264°
2026-05-06 23:38 -23.42804 -46.48191 2471 ft 2 kts 264°
2026-05-06 23:38 -23.42801 -46.48173 2471 ft 3 kts 245°
2026-05-06 23:39 -23.42790 -46.48159 2475 ft 3 kts 198°
2026-05-06 23:39 -23.42772 -46.48157 2471 ft 2 kts 175°
2026-05-06 23:39 -23.42763 -46.48158 2471 ft 1 kts 174°
2026-05-06 23:39 -23.42762 -46.48158 2471 ft 0 kts 174°
2026-05-06 23:41 -23.42776 -46.48157 2471 ft 5 kts 174°
2026-05-06 23:42 -23.42848 -46.48150 2472 ft 15 kts 174°
2026-05-06 23:42 -23.42966 -46.48138 2475 ft 18 kts 174°
2026-05-06 23:42 -23.43095 -46.48132 2472 ft 19 kts 202°
2026-05-06 23:42 -23.43149 -46.48254 2471 ft 19 kts 254°
2026-05-06 23:43 -23.43180 -46.48367 2472 ft 12 kts 246°
2026-05-06 23:43 -23.43250 -46.48380 2471 ft 11 kts 164°
2026-05-06 23:43 -23.43329 -46.48356 2472 ft 12 kts 164°
2026-05-06 23:43 -23.43406 -46.48319 2472 ft 13 kts 126°
2026-05-06 23:44 -23.43398 -46.48221 2472 ft 14 kts 74°
2026-05-06 23:44 -23.43356 -46.48065 2473 ft 43 kts 73°
2026-05-06 23:44 -23.43201 -46.47500 2471 ft 110 kts 73°
2026-05-06 23:44 -23.42929 -46.46493 2477 ft 164 kts 73°
2026-05-06 23:45 -23.42575 -46.45207 2829 ft 184 kts 73°
2026-05-06 23:45 -23.42189 -46.43854 3526 ft 188 kts 73°
2026-05-06 23:45 -23.41780 -46.42484 4222 ft 194 kts 73°
2026-05-06 23:45 -23.41364 -46.41054 4778 ft 210 kts 73°
2026-05-06 23:46 -23.40897 -46.39436 5162 ft 239 kts 72°
2026-05-06 23:46 -23.40371 -46.37631 5678 ft 260 kts 72°
2026-05-06 23:46 -23.39694 -46.35746 6357 ft 271 kts 59°
2026-05-06 23:46 -23.38681 -46.34009 7267 ft 275 kts 57°
2026-05-06 23:47 -23.37652 -46.32235 8130 ft 279 kts 57°
2026-05-06 23:47 -23.36608 -46.30433 9021 ft 283 kts 57°
2026-05-06 23:47 -23.35550 -46.28607 9913 ft 287 kts 57°
2026-05-06 23:47 -23.34470 -46.26742 10626 ft 297 kts 57°
2026-05-06 23:48 -23.33333 -46.24779 11042 ft 315 kts 57°
2026-05-06 23:48 -23.32139 -46.22720 11596 ft 327 kts 58°
2026-05-06 23:48 -23.30922 -46.20620 12424 ft 328 kts 58°
2026-05-06 23:48 -23.29698 -46.18511 13218 ft 332 kts 58°
2026-05-06 23:49 -23.28458 -46.16374 14014 ft 335 kts 58°
2026-05-06 23:49 -23.27209 -46.14226 14704 ft 339 kts 59°
2026-05-06 23:49 -23.25814 -46.12138 15349 ft 345 kts 46°
2026-05-06 23:49 -23.23876 -46.10638 16012 ft 351 kts 26°
2026-05-06 23:50 -23.21508 -46.09784 16640 ft 357 kts 18°
2026-05-06 23:50 -23.16755 -46.08104 17858 ft 366 kts 20°
2026-05-06 23:50 -23.14316 -46.07214 18474 ft 371 kts 20°
2026-05-06 23:51 -23.11862 -46.06309 19000 ft 375 kts 20°
2026-05-06 23:51 -23.09372 -46.05389 19506 ft 379 kts 20°
2026-05-06 23:51 -23.06859 -46.04457 20003 ft 384 kts 20°
2026-05-06 23:51 -23.04314 -46.03514 20510 ft 388 kts 20°
2026-05-06 23:52 -23.01753 -46.02566 21005 ft 392 kts 20°
2026-05-06 23:52 -22.99155 -46.01605 21493 ft 396 kts 20°
2026-05-06 23:52 -22.96536 -46.00635 21991 ft 400 kts 19°
2026-05-06 23:52 -22.93882 -45.99654 22482 ft 405 kts 19°
2026-05-06 23:53 -22.91202 -45.98664 22969 ft 408 kts 19°
2026-05-06 23:53 -22.88557 -45.97524 23413 ft 412 kts 31°
2026-05-06 23:53 -22.86180 -45.95783 23870 ft 414 kts 36°
2026-05-06 23:53 -22.83789 -45.94014 24223 ft 419 kts 36°
2026-05-06 23:54 -22.81407 -45.92237 24632 ft 422 kts 36°
2026-05-06 23:54 -22.78980 -45.90415 25023 ft 426 kts 36°
2026-05-06 23:54 -22.76533 -45.88573 25403 ft 429 kts 36°
2026-05-06 23:54 -22.74067 -45.86717 25788 ft 433 kts 36°
2026-05-06 23:55 -22.71586 -45.84851 26132 ft 437 kts 36°
2026-05-06 23:55 -22.69076 -45.82962 26530 ft 440 kts 36°
2026-05-06 23:55 -22.66558 -45.81069 26862 ft 444 kts 36°
2026-05-06 23:55 -22.63999 -45.79147 27203 ft 447 kts 36°
2026-05-06 23:56 -22.61440 -45.77225 27569 ft 450 kts 36°
2026-05-06 23:56 -22.58852 -45.75282 27916 ft 454 kts 36°
2026-05-06 23:56 -22.56244 -45.73325 28258 ft 457 kts 36°
2026-05-06 23:56 -22.53626 -45.71361 28586 ft 461 kts 36°
2026-05-06 23:57 -22.50977 -45.69375 28920 ft 464 kts 36°
2026-05-06 23:57 -22.48311 -45.67377 29255 ft 468 kts 36°
2026-05-06 23:57 -22.45623 -45.65365 29577 ft 471 kts 36°
2026-05-06 23:57 -22.42952 -45.63365 29897 ft 474 kts 36°
2026-05-06 23:58 -22.40200 -45.61305 30223 ft 477 kts 36°
2026-05-06 23:58 -22.37490 -45.59279 30495 ft 481 kts 36°
2026-05-06 23:58 -22.34728 -45.57214 30768 ft 484 kts 36°
2026-05-06 23:58 -22.31958 -45.55145 31043 ft 486 kts 36°
2026-05-06 23:59 -22.29163 -45.53057 31327 ft 489 kts 36°
2026-05-06 23:59 -22.26353 -45.50960 31604 ft 492 kts 36°
2026-05-06 23:59 -22.23525 -45.48850 31867 ft 494 kts 36°
2026-05-06 23:59 -22.20684 -45.46732 32127 ft 497 kts 36°
2026-05-07 00:00 -22.17834 -45.44606 32408 ft 500 kts 36°
2026-05-07 00:00 -22.14958 -45.42465 32636 ft 503 kts 36°
2026-05-07 00:00 -22.12103 -45.40340 32919 ft 505 kts 36°
2026-05-07 00:00 -22.09206 -45.38184 33170 ft 508 kts 36°
2026-05-07 00:01 -22.06254 -45.35987 33417 ft 511 kts 36°
2026-05-07 00:01 -22.03497 -45.33807 33647 ft 511 kts 41°
2026-05-07 00:01 -22.00635 -45.31341 33915 ft 513 kts 41°
2026-05-07 00:01 -21.97833 -45.28961 34201 ft 514 kts 40°
2026-05-07 00:02 -21.95010 -45.26581 34485 ft 515 kts 40°
2026-05-07 00:02 -21.92190 -45.24207 34767 ft 515 kts 40°
2026-05-07 00:02 -21.89362 -45.21830 35032 ft 515 kts 40°
2026-05-07 00:02 -21.86533 -45.19451 35189 ft 517 kts 40°
2026-05-07 00:03 -21.80875 -45.14701 35195 ft 515 kts 40°
2026-05-07 00:03 -21.75227 -45.09962 35201 ft 515 kts 40°
2026-05-07 00:04 -21.69576 -45.05227 35195 ft 514 kts 40°
2026-05-07 00:04 -21.63928 -45.00499 35198 ft 514 kts 40°
2026-05-07 00:05 -21.58285 -44.95779 35196 ft 514 kts 40°
2026-05-07 00:05 -21.52640 -44.91064 35200 ft 513 kts 40°
2026-05-07 00:06 -21.46985 -44.86344 35202 ft 515 kts 40°
2026-05-07 00:06 -21.41363 -44.81657 35192 ft 514 kts 40°
2026-05-07 00:07 -21.35720 -44.76949 35198 ft 514 kts 41°
2026-05-07 00:07 -21.30077 -44.72236 35199 ft 514 kts 40°
2026-05-07 00:08 -21.24440 -44.67534 35194 ft 513 kts 41°
2026-05-07 00:08 -21.18800 -44.62833 35199 ft 513 kts 41°
2026-05-07 00:09 -21.13162 -44.58138 35199 ft 513 kts 41°
2026-05-07 00:09 -21.07564 -44.53482 35202 ft 513 kts 41°
2026-05-07 00:10 -21.01892 -44.48768 35201 ft 512 kts 41°
2026-05-07 00:10 -20.96291 -44.44120 35206 ft 513 kts 41°
2026-05-07 00:11 -20.90650 -44.39446 35206 ft 513 kts 41°
2026-05-07 00:11 -20.85004 -44.34771 35209 ft 513 kts 41°
2026-05-07 00:12 -20.79357 -44.30099 35210 ft 513 kts 41°
2026-05-07 00:12 -20.73706 -44.25430 35210 ft 513 kts 41°
2026-05-07 00:13 -20.68092 -44.20796 35209 ft 513 kts 41°
2026-05-07 00:13 -20.62455 -44.16102 35211 ft 512 kts 42°
2026-05-07 00:14 -20.56854 -44.11388 35211 ft 512 kts 41°
2026-05-07 00:14 -20.51245 -44.06691 35206 ft 512 kts 41°
2026-05-07 00:15 -20.45579 -44.02063 35200 ft 512 kts 41°
2026-05-07 00:15 -20.39964 -43.97465 35212 ft 512 kts 41°
2026-05-07 00:16 -20.34322 -43.92848 35216 ft 511 kts 41°
2026-05-07 00:16 -20.28673 -43.88230 35205 ft 512 kts 41°
2026-05-07 00:17 -20.23016 -43.83609 35196 ft 511 kts 41°
2026-05-07 00:17 -20.17372 -43.79003 35216 ft 512 kts 41°
2026-05-07 00:18 -20.12679 -43.75177 35217 ft 511 kts 41°
2026-05-07 00:18 -20.07044 -43.70587 35202 ft 510 kts 41°
2026-05-07 00:19 -20.00503 -43.65264 35193 ft 509 kts 41°
2026-05-07 00:19 -19.94876 -43.60690 35194 ft 508 kts 41°
2026-05-07 00:20 -19.90174 -43.56869 35205 ft 508 kts 41°
2026-05-07 00:20 -19.84602 -43.52336 35201 ft 507 kts 41°
2026-05-07 00:21 -19.79002 -43.47786 35199 ft 507 kts 41°
2026-05-07 00:21 -19.73397 -43.43235 35181 ft 506 kts 41°
2026-05-07 00:22 -19.67814 -43.38705 35186 ft 505 kts 40°
2026-05-07 00:22 -19.62239 -43.34184 35181 ft 504 kts 40°
2026-05-07 00:23 -19.56672 -43.29673 35189 ft 504 kts 40°
2026-05-07 00:23 -19.51100 -43.25163 35176 ft 503 kts 40°
2026-05-07 00:24 -19.45545 -43.20669 35187 ft 502 kts 40°
2026-05-07 00:24 -19.39993 -43.16183 35178 ft 501 kts 40°
2026-05-07 00:25 -19.34454 -43.11711 35182 ft 499 kts 40°
2026-05-07 00:25 -19.28925 -43.07251 35194 ft 500 kts 40°
2026-05-07 00:26 -19.23400 -43.02798 35184 ft 498 kts 40°
2026-05-07 00:26 -19.17917 -42.98383 35179 ft 498 kts 40°
2026-05-07 00:27 -19.12393 -42.93939 35181 ft 498 kts 40°
2026-05-07 00:27 -19.06883 -42.89510 35182 ft 497 kts 40°
2026-05-07 00:28 -19.01385 -42.85094 35177 ft 496 kts 39°
2026-05-07 00:28 -18.95891 -42.80683 35187 ft 496 kts 39°
2026-05-07 00:29 -18.90114 -42.76713 35193 ft 497 kts 27°
2026-05-07 00:30 -18.77761 -42.70053 35195 ft 498 kts 28°
2026-05-07 00:30 -18.71628 -42.66745 35190 ft 497 kts 28°
2026-05-07 00:31 -18.65481 -42.63433 35187 ft 496 kts 28°
2026-05-07 00:31 -18.59322 -42.60116 35185 ft 496 kts 28°
2026-05-07 00:32 -18.53177 -42.56810 35179 ft 496 kts 28°
2026-05-07 00:32 -18.47035 -42.53509 35183 ft 496 kts 28°
2026-05-07 00:33 -18.40891 -42.50208 35179 ft 496 kts 28°
2026-05-07 00:33 -18.34756 -42.46916 35179 ft 495 kts 28°
2026-05-07 00:34 -18.28614 -42.43622 35184 ft 495 kts 28°
2026-05-07 00:34 -18.22476 -42.40333 35179 ft 494 kts 28°
2026-05-07 00:35 -18.16355 -42.37056 35176 ft 494 kts 28°
2026-05-07 00:35 -18.10222 -42.33774 35170 ft 494 kts 28°
2026-05-07 00:36 -18.04108 -42.30506 35174 ft 494 kts 28°
2026-05-07 00:36 -17.97970 -42.27228 35181 ft 494 kts 28°
2026-05-07 00:37 -17.91841 -42.23956 35183 ft 494 kts 28°
2026-05-07 00:37 -17.85720 -42.20692 35182 ft 493 kts 28°
2026-05-07 00:38 -17.79597 -42.17429 35184 ft 493 kts 28°
2026-05-07 00:38 -17.73479 -42.14171 35189 ft 493 kts 28°
2026-05-07 00:39 -17.67368 -42.10920 35184 ft 492 kts 28°
2026-05-07 00:39 -17.61298 -42.07693 35191 ft 492 kts 28°
2026-05-07 00:40 -17.55193 -42.04449 35184 ft 491 kts 28°
2026-05-07 00:40 -17.49099 -42.01213 35177 ft 492 kts 28°
2026-05-07 00:41 -17.43349 -41.97396 35185 ft 489 kts 39°
2026-05-07 00:41 -17.37863 -41.93154 35181 ft 489 kts 38°
2026-05-07 00:42 -17.32392 -41.88920 35183 ft 489 kts 38°
2026-05-07 00:42 -17.26968 -41.84723 35181 ft 489 kts 38°
2026-05-07 00:43 -17.21482 -41.80482 35183 ft 489 kts 38°
2026-05-07 00:43 -17.15998 -41.76246 35174 ft 489 kts 38°
2026-05-07 00:44 -17.10526 -41.72023 35174 ft 489 kts 38°
2026-05-07 00:44 -17.05050 -41.67800 35176 ft 489 kts 38°
2026-05-07 00:45 -16.99576 -41.63580 35177 ft 489 kts 38°
2026-05-07 00:45 -16.94142 -41.59395 35173 ft 488 kts 38°
2026-05-07 00:46 -16.88671 -41.55185 35175 ft 488 kts 38°
2026-05-07 00:46 -16.83200 -41.50977 35176 ft 488 kts 38°
2026-05-07 00:47 -16.77772 -41.46807 34838 ft 479 kts 38°
2026-05-07 00:47 -16.75083 -41.44741 34198 ft 481 kts 38°
2026-05-07 00:47 -16.72386 -41.42670 33510 ft 481 kts 38°
2026-05-07 00:48 -16.69666 -41.40663 32918 ft 478 kts 31°
2026-05-07 00:48 -16.66650 -41.39240 32383 ft 475 kts 22°
2026-05-07 00:48 -16.63628 -41.37893 32008 ft 468 kts 24°
2026-05-07 00:48 -16.60658 -41.36554 31555 ft 463 kts 24°
2026-05-07 00:49 -16.57704 -41.35231 31040 ft 461 kts 24°
2026-05-07 00:49 -16.54763 -41.33915 30533 ft 458 kts 24°
2026-05-07 00:49 -16.51851 -41.32612 30018 ft 455 kts 24°
2026-05-07 00:49 -16.48943 -41.31313 29466 ft 451 kts 24°
2026-05-07 00:50 -16.46070 -41.30030 28993 ft 446 kts 24°
2026-05-07 00:50 -16.43284 -41.28786 28551 ft 441 kts 24°
2026-05-07 00:50 -16.40472 -41.27530 28099 ft 437 kts 24°
2026-05-07 00:50 -16.37687 -41.26287 27641 ft 433 kts 24°
2026-05-07 00:51 -16.34935 -41.25060 27198 ft 429 kts 24°
2026-05-07 00:51 -16.32197 -41.23839 26757 ft 426 kts 24°
2026-05-07 00:51 -16.29483 -41.22628 26321 ft 423 kts 24°
2026-05-07 00:51 -16.26789 -41.21428 25890 ft 419 kts 24°
2026-05-07 00:52 -16.24119 -41.20238 25466 ft 417 kts 24°
2026-05-07 00:52 -16.21455 -41.19051 25053 ft 414 kts 24°
2026-05-07 00:52 -16.18813 -41.17874 24633 ft 411 kts 24°
2026-05-07 00:52 -16.16185 -41.16704 24223 ft 409 kts 24°
2026-05-07 00:53 -16.13580 -41.15545 23814 ft 407 kts 24°
2026-05-07 00:53 -16.10978 -41.14387 23347 ft 405 kts 24°
2026-05-07 00:53 -16.08397 -41.13239 22908 ft 402 kts 24°
2026-05-07 00:53 -16.05832 -41.12099 22501 ft 399 kts 24°
2026-05-07 00:54 -16.03299 -41.10972 22107 ft 395 kts 24°
2026-05-07 00:54 -16.00779 -41.09852 21708 ft 392 kts 24°
2026-05-07 00:54 -15.98278 -41.08741 21317 ft 389 kts 24°
2026-05-07 00:54 -15.95796 -41.07638 20943 ft 386 kts 24°
2026-05-07 00:55 -15.93337 -41.06546 20544 ft 383 kts 24°
2026-05-07 00:55 -15.90921 -41.05474 20160 ft 381 kts 24°
2026-05-07 00:55 -15.88489 -41.04394 19776 ft 378 kts 24°
2026-05-07 00:55 -15.86079 -41.03324 19406 ft 376 kts 24°
2026-05-07 00:56 -15.83694 -41.02267 19031 ft 374 kts 24°
2026-05-07 00:56 -15.81306 -41.01208 18655 ft 372 kts 24°
2026-05-07 00:56 -15.78939 -41.00159 18250 ft 370 kts 24°
2026-05-07 00:56 -15.76563 -40.99105 17833 ft 367 kts 24°
2026-05-07 00:57 -15.74224 -40.98069 17457 ft 363 kts 24°
2026-05-07 00:57 -15.71908 -40.97042 17088 ft 360 kts 24°
2026-05-07 00:57 -15.69611 -40.96025 16722 ft 357 kts 24°
2026-05-07 00:57 -15.67358 -40.95027 16367 ft 354 kts 24°
2026-05-07 00:58 -15.65115 -40.94034 16006 ft 351 kts 24°
2026-05-07 00:58 -15.62878 -40.93044 15653 ft 348 kts 25°
2026-05-07 00:58 -15.60657 -40.92061 15292 ft 345 kts 25°
2026-05-07 00:58 -15.58459 -40.91089 14945 ft 343 kts 24°
2026-05-07 00:59 -15.54085 -40.89154 14239 ft 338 kts 24°
2026-05-07 00:59 -15.51925 -40.88199 13883 ft 336 kts 24°
2026-05-07 00:59 -15.49779 -40.87250 13491 ft 334 kts 25°
2026-05-07 01:00 -15.47647 -40.86308 13141 ft 331 kts 25°
2026-05-07 01:00 -15.45559 -40.85385 12793 ft 329 kts 25°
2026-05-07 01:00 -15.43466 -40.84461 12451 ft 326 kts 25°
2026-05-07 01:00 -15.41390 -40.83544 12116 ft 323 kts 25°
2026-05-07 01:01 -15.39327 -40.82633 11786 ft 320 kts 25°